TimeEDT,TemperatureF,Dew PointF,Humidity,Sea Level PressureIn,VisibilityMPH,Wind Direction,Wind SpeedMPH,Gust SpeedMPH,PrecipitationIn,Events,Conditions,WindDirDegrees,DateUTC
12:15 AM,71.6,71.6,100,30.07,9.0,Calm,Calm,-,N/A,,Clear,0,2013-08-23 04:15:00
12:35 AM,71.6,71.6,100,30.06,5.0,Calm,Calm,-,N/A,,Clear,0,2013-08-23 04:35:00
12:55 AM,71.6,71.6,100,30.06,5.0,Calm,Calm,-,N/A,,Clear,0,2013-08-23 04:55:00
1:15 AM,71.6,71.6,100,30.06,5.0,Calm,Calm,-,N/A,,Clear,0,2013-08-23 05:15:00
1:35 AM,71.6,71.6,100,30.05,2.5,Calm,Calm,-,N/A,,Clear,0,2013-08-23 05:35:00
1:55 AM,71.6,71.6,100,30.06,7.0,Calm,Calm,-,N/A,,Clear,0,2013-08-23 05:55:00
2:15 AM,71.6,71.6,100,30.05,5.0,Calm,Calm,-,N/A,,Clear,0,2013-08-23 06:15:00
2:35 AM,71.6,71.6,100,30.04,7.0,Calm,Calm,-,N/A,,Clear,0,2013-08-23 06:35:00
2:55 AM,71.6,71.6,100,30.03,6.0,Calm,Calm,-,N/A,,Clear,0,2013-08-23 06:55:00
3:15 AM,71.6,71.6,100,30.03,8.0,Calm,Calm,-,N/A,,Clear,0,2013-08-23 07:15:00
3:35 AM,71.6,71.6,100,30.03,8.0,Calm,Calm,-,N/A,,Partly Cloudy,0,2013-08-23 07:35:00
3:55 AM,71.6,71.6,100,30.02,7.0,Calm,Calm,-,N/A,,Partly Cloudy,0,2013-08-23 07:55:00
4:15 AM,71.6,71.6,100,30.02,7.0,Calm,Calm,-,N/A,,Mostly Cloudy,0,2013-08-23 08:15:00
4:35 AM,73.4,73.4,100,30.01,7.0,Calm,Calm,-,N/A,,Mostly Cloudy,0,2013-08-23 08:35:00
4:55 AM,73.4,73.4,100,30.01,7.0,Calm,Calm,-,N/A,,Scattered Clouds,0,2013-08-23 08:55:00
5:15 AM,71.6,71.6,100,30.02,5.0,Calm,Calm,-,N/A,,Scattered Clouds,0,2013-08-23 09:15:00
5:35 AM,73.4,73.4,100,30.02,8.0,Calm,Calm,-,N/A,,Mostly Cloudy,0,2013-08-23 09:35:00
5:55 AM,73.4,73.4,100,30.02,8.0,Calm,Calm,-,N/A,,Mostly Cloudy,0,2013-08-23 09:55:00
6:15 AM,71.6,71.6,100,30.02,7.0,Calm,Calm,-,N/A,,Partly Cloudy,0,2013-08-23 10:15:00
6:35 AM,71.6,71.6,100,30.02,5.0,Calm,Calm,-,N/A,,Clear,0,2013-08-23 10:35:00
6:50 AM,71.6,71.6,100,30.02,7.0,Variable,4.6,-,N/A,,Scattered Clouds,0,2013-08-23 10:50:00
7:50 AM,73.4,73.4,100,30.04,10.0,Calm,Calm,-,N/A,,Mostly Cloudy,0,2013-08-23 11:50:00
8:50 AM,75.2,75.2,100,30.05,10.0,Calm,Calm,-,N/A,,Mostly Cloudy,0,2013-08-23 12:50:00
9:50 AM,77.0,77.0,100,30.05,10.0,Calm,Calm,-,N/A,,Scattered Clouds,0,2013-08-23 13:50:00
10:50 AM,77.0,77.0,100,30.07,10.0,Calm,Calm,-,N/A,,Scattered Clouds,0,2013-08-23 14:50:00
11:50 AM,82.4,77.0,84,30.06,10.0,Variable,5.8,-,N/A,,Mostly Cloudy,0,2013-08-23 15:50:00
12:50 PM,86.0,77.0,74,30.04,10.0,Variable,5.8,-,N/A,,Mostly Cloudy,0,2013-08-23 16:50:00
1:50 PM,86.0,75.2,70,30.02,10.0,East,11.5,-,N/A,,Scattered Clouds,90,2013-08-23 17:50:00
2:50 PM,80.6,75.2,84,30.02,7.0,ESE,11.5,-,N/A,,Scattered Clouds,120,2013-08-23 18:50:00
3:50 PM,77.0,75.2,94,30.04,7.0,Variable,4.6,-,N/A,Rain,Light Rain,0,2013-08-23 19:50:00
4:50 PM,75.2,75.2,100,30.05,5.0,Variable,4.6,-,N/A,Rain,Light Rain,0,2013-08-23 20:50:00
5:50 PM,75.2,75.2,100,30.05,4.0,Variable,4.6,-,N/A,Rain,Light Rain,0,2013-08-23 21:50:00
6:50 PM,73.4,73.4,100,30.04,5.0,Calm,Calm,-,N/A,Rain,Light Rain,0,2013-08-23 22:50:00
7:50 PM,73.4,73.4,100,30.04,7.0,Calm,Calm,-,N/A,Rain,Light Rain,0,2013-08-23 23:50:00
8:15 PM,73.4,73.4,100,30.04,8.0,Calm,Calm,-,N/A,Rain,Light Rain,0,2013-08-24 00:15:00
8:35 PM,73.4,73.4,100,30.04,8.0,Calm,Calm,-,N/A,Rain,Light Rain,0,2013-08-24 00:35:00
8:55 PM,73.4,73.4,100,30.04,10.0,Calm,Calm,-,N/A,Rain,Light Rain,0,2013-08-24 00:55:00
9:15 PM,73.4,73.4,100,30.03,9.0,Calm,Calm,-,N/A,,Clear,0,2013-08-24 01:15:00
9:35 PM,73.4,73.4,100,30.03,10.0,Calm,Calm,-,N/A,,Clear,0,2013-08-24 01:35:00
9:55 PM,73.4,73.4,100,30.04,10.0,Calm,Calm,-,N/A,,Clear,0,2013-08-24 01:55:00
10:15 PM,73.4,73.4,100,30.04,9.0,Calm,Calm,-,N/A,,Clear,0,2013-08-24 02:15:00
10:35 PM,73.4,73.4,100,30.03,8.0,Calm,Calm,-,N/A,,Clear,0,2013-08-24 02:35:00
10:55 PM,73.4,73.4,100,30.04,6.0,Calm,Calm,-,N/A,,Clear,0,2013-08-24 02:55:00
11:15 PM,73.4,73.4,100,30.05,7.0,Calm,Calm,-,N/A,,Clear,0,2013-08-24 03:15:00
11:35 PM,73.4,73.4,100,30.05,8.0,Calm,Calm,-,N/A,,Clear,0,2013-08-24 03:35:00
11:55 PM,73.4,73.4,100,30.06,10.0,Calm,Calm,-,N/A,,Clear,0,2013-08-24 03:55:00